Flag for Australia Weather past 2 weeks in Hobart, Tasmania, Australia

Now
55 °F

Passing clouds.


Feels Like: 53 °F
Forecast: 38 / 60 °F
Wind: 8 mph from Southeast

Location: Hobart Airport

Current Time: Aug 21, 2014 at 5:25:54 PM

Latest Report: Aug 21, 2014 at 4:30 PM


Visibility: N/A

Pressure: 30.45 "Hg

Humidity: 59%

Dew point: 41 °F

Location of HobartLocation

Historic Weather in Hobart — Graph

°F

Hobart temperature yesterday

Maximum temperature yesterday: 55 °F (at 12:00 PM)
Minimum temperature yesterday: 39 °F (at 3:00 AM)
Average temperature yesterday: 46 °F

Past Weeks' High & Low Weather Summary

 TemperatureHumidityPressure
High61 °F (Aug 9, 2:00 PM)100% (Aug 15, 1:00 AM)30.57 "Hg (Aug 15, 1:00 AM)
Low36 °F (Aug 13, 6:30 AM)39% (Aug 15, 3:00 PM)29.80 "Hg (Aug 6, 5:00 PM)
Average47 °F70%30.26 "Hg
* Reported Aug 6 4:00 PM — Aug 21 4:00 PM, Hobart, Weather by CustomWeather, © 2014

Note: Actual official high and low records may vary slightly from our data, if they occured in-between our weather recording intervals... More about our weather records

Advertising

Hobart weather history for previous 24 hours

 ConditionsComfort  
Time TempWeatherWind HumidityBarometerVisibility
4:00 PM
Aug 21
57 °FPassing clouds.7 mph59%30.45 "HgN/A
3:30 PM57 °FPassing clouds.9 mph55%30.45 "HgN/A
3:00 PM57 °FPassing clouds.10 mph51%30.45 "HgN/A
2:30 PM55 °FPassing clouds.9 mph59%30.45 "HgN/A
2:00 PM55 °FSunny.9 mph63%30.45 "HgN/A
1:30 PM57 °FPassing clouds.6 mph59%30.45 "HgN/A
1:00 PM57 °FPassing clouds.5 mph55%30.45 "HgN/A
12:30 PM55 °FPassing clouds.6 mph59%30.48 "HgN/A
12:00 PM54 °FPassing clouds.8 mph63%30.48 "HgN/A
11:30 AM52 °FPassing clouds.9 mph67%30.48 "HgN/A
11:00 AM50 °FPassing clouds.8 mph71%30.51 "HgN/A
10:30 AM50 °FPassing clouds.7 mph71%30.51 "HgN/A
10:00 AM46 °FPassing clouds.9 mph76%30.51 "HgN/A
9:30 AM45 °FPassing clouds.12 mph81%30.51 "HgN/A
9:00 AM43 °FPassing clouds.10 mph81%30.51 "HgN/A
8:30 AM41 °FPassing clouds.10 mph87%30.51 "HgN/A
8:00 AM39 °FPassing clouds.10 mph87%30.51 "HgN/A
7:30 AM39 °FFog.7 mph87%30.48 "HgN/A
7:00 AM37 °FFog.9 mph93%30.48 "HgN/A
6:30 AM37 °FFog.10 mph93%30.48 "HgN/A
6:00 AM37 °FPassing clouds.10 mph93%30.45 "HgN/A
5:30 AM37 °FPassing clouds.10 mph93%30.45 "HgN/A
5:00 AM37 °FPassing clouds.12 mph93%30.45 "HgN/A
4:30 AM39 °FPassing clouds.10 mph93%30.45 "HgN/A
4:00 AM41 °FPassing clouds.10 mph87%30.45 "HgN/A
3:30 AM41 °FPassing clouds.9 mph93%30.42 "HgN/A
3:00 AM43 °FPassing clouds.12 mph87%30.42 "HgN/A
2:30 AM43 °FPassing clouds.9 mph87%30.42 "HgN/A
2:00 AM43 °FPassing clouds.10 mph87%30.42 "HgN/A
1:30 AM43 °FPassing clouds.10 mph87%30.42 "HgN/A
1:00 AM43 °FPassing clouds.10 mph87%30.42 "HgN/A
12:30 AM41 °FPassing clouds.8 mph93%30.45 "HgN/A
12:00 AM41 °FPassing clouds.8 mph87%30.45 "HgN/A
11:30 PM
Aug 20
43 °FPassing clouds.8 mph87%30.42 "HgN/A
11:00 PM43 °FPassing clouds.8 mph87%30.42 "HgN/A
10:30 PM43 °FPassing clouds.8 mph87%30.42 "HgN/A
10:00 PM43 °FPassing clouds.6 mph93%30.42 "HgN/A
9:30 PM43 °FPassing clouds.6 mph87%30.42 "HgN/A
9:00 PM43 °FPassing clouds.2 mph93%30.42 "HgN/A
8:30 PM43 °FPassing clouds.1 mph93%30.39 "HgN/A
8:00 PM43 °FPassing clouds.No wind87%30.39 "HgN/A
7:30 PM45 °FPassing clouds.No wind93%30.39 "HgN/A
7:00 PM46 °FPassing clouds.2 mph87%30.39 "HgN/A
6:30 PM48 °FPassing clouds.5 mph87%30.36 "HgN/A
6:00 PM50 °FPassing clouds.8 mph82%30.36 "HgN/A
5:30 PM50 °FPassing clouds.9 mph82%30.33 "HgN/A
5:00 PM52 °FPassing clouds.9 mph67%30.33 "HgN/A
Weather by CustomWeather, © 2014

See weather overviewHow to use our weather pages